{"data":{"norad_id":60013,"epoch":"2026-05-25T05:25:26.230656Z","epoch_age_seconds":55122,"freshness":"FRESH","line1":"1 60013U 24110B   26145.22599804  .00006905  00000+0  30428-3 0  9994","line2":"2 60013  97.5711 241.0177 0010017 336.8535  23.2248 15.22099053108697","mean_motion":15.22099053,"eccentricity":0.0010017,"inclination_deg":97.5711,"raan_deg":241.0177,"arg_perigee_deg":336.8535,"mean_anomaly_deg":23.2248,"bstar":0.00030428,"rev_number":10869,"period_min":94.606195119944,"perigee_km":492.62091245983,"apogee_km":506.39959096391,"semimajor_km":6877.6472517119,"source":"CELESTRAK","updated_at":"2026-05-25T13:38:01.784881Z"}}